Home   Weather   Oldenburg   Past weeks
Flag for Germany

Past Weather in Oldenburg, Lower Saxony, Germany — Yesterday and Last 2 Weeks

Now
46 °F

Sunny.


Feels Like: 44 °F
Forecast: 69 / 44 °F
Wind: 5 mph from Northeast

Location: Bremen Airport

Current Time: May 29, 2020 at 6:36:58 am

Latest Report: May 29, 2020 at 5:50 am


Visibility: 10 mi

Pressure: 30.45 "Hg

Humidity: 93%

Dew Point: 45 °F

Location of OldenburgLocation

Past Weather in Oldenburg — Graph

°F

Oldenburg Temperature Yesterday

Maximum temperature yesterday: 64 °F (at 1:20 pm)
Minimum temperature yesterday: 48 °F (at 5:20 am)
Average temperature yesterday: 57 °F

High & Low Weather Summary for the Past Weeks

 TemperatureHumidityPressure
High75 °F (May 21, 4:20 pm)100% (May 15, 6:20 am)30.60 "Hg (May 15, 6:20 am)
Low32 °F (May 15, 3:20 am)35% (May 23, 5:20 pm)29.95 "Hg (May 22, 4:50 pm)
Average56 °F69%30.24 "Hg
* Reported May 14 5:20 am — May 29 5:20 am, Oldenburg. Weather by CustomWeather, © 2020

Note: Actual official high and low records may vary slightly from our data, if they occured in-between our weather recording intervals... More about our weather records

Oldenburg Weather History for the Previous 24 Hours

Scroll right to see more
 ConditionsComfort  
Time TempWeatherWind HumidityBarometerVisibility
5:20 am
Fri, May 29
46 °FSunny.6 mph93%30.45 "Hg10 mi
4:50 am43 °FClear.1 mph100%30.45 "Hg10 mi
4:20 am43 °FClear.1 mph100%30.45 "Hg10 mi
3:50 am46 °FPassing clouds.3 mph93%30.45 "HgN/A
3:20 am45 °FClear.2 mph93%30.45 "Hg10 mi
2:50 am45 °FClear.2 mph93%30.45 "Hg10 mi
2:20 am48 °FPassing clouds.3 mph87%30.45 "HgN/A
1:50 am50 °FPassing clouds.5 mph82%30.45 "HgN/A
1:20 am50 °FPassing clouds.6 mph82%30.45 "HgN/A
12:50 am50 °FPassing clouds.7 mph82%30.45 "HgN/A
12:20 am50 °FPassing clouds.7 mph82%30.45 "HgN/A
11:50 pm
Thu, May 28
52 °FPassing clouds.7 mph77%30.45 "HgN/A
11:20 pm52 °FPassing clouds.9 mph77%30.45 "HgN/A
10:50 pm52 °FPassing clouds.8 mph77%30.45 "HgN/A
10:20 pm54 °FPassing clouds.8 mph72%30.45 "HgN/A
9:50 pm54 °FClear.10 mph72%30.45 "Hg10 mi
9:20 pm54 °FSunny.13 mph72%30.45 "Hg10 mi
8:50 pm55 °FSunny.12 mph63%30.45 "Hg10 mi
8:20 pm57 °FPassing clouds.12 mph63%30.45 "HgN/A
7:50 pm59 °FSunny.13 mph59%30.45 "Hg10 mi
7:20 pm59 °FPassing clouds.14 mph59%30.45 "HgN/A
6:50 pm61 °FPassing clouds.14 mph55%30.45 "HgN/A
6:20 pm63 °FPassing clouds.13 mph52%30.48 "HgN/A
5:50 pm63 °FPassing clouds.13 mph52%30.48 "HgN/A
5:20 pm63 °FPassing clouds.13 mph52%30.48 "HgN/A
4:50 pm64 °FPassing clouds.13 mph49%30.48 "HgN/A
4:20 pm64 °FPassing clouds.12 mph49%30.48 "HgN/A
3:50 pm64 °FPassing clouds.13 mph49%30.48 "HgN/A
3:20 pm64 °FPassing clouds.14 mph49%30.48 "HgN/A
2:50 pm64 °FPassing clouds.12 mph46%30.48 "HgN/A
2:20 pm64 °FPassing clouds.13 mph43%30.48 "HgN/A
1:50 pm63 °FPassing clouds.12 mph49%30.51 "HgN/A
1:20 pm64 °FPassing clouds.8 mph43%30.51 "HgN/A
12:50 pm63 °FPassing clouds.13 mph49%30.51 "HgN/A
12:20 pm61 °FPassing clouds.10 mph52%30.51 "HgN/A
11:50 am63 °FPassing clouds.10 mph52%30.51 "HgN/A
11:20 am61 °FPassing clouds.13 mph52%30.51 "HgN/A
10:50 am61 °FPassing clouds.12 mph55%30.54 "HgN/A
10:20 am59 °FPassing clouds.12 mph55%30.54 "HgN/A
9:50 am59 °FPassing clouds.13 mph55%30.54 "HgN/A
9:20 am57 °FPassing clouds.12 mph59%30.54 "HgN/A
8:50 am55 °FPassing clouds.12 mph63%30.54 "HgN/A
8:20 am55 °FPassing clouds.10 mph67%30.54 "HgN/A
7:50 am54 °FPassing clouds.9 mph72%30.54 "HgN/A
7:20 am52 °FPassing clouds.7 mph82%30.54 "HgN/A
6:50 am50 °FSunny.7 mph88%30.54 "Hg10 mi
6:20 am48 °FPassing clouds.6 mph87%30.54 "HgN/A
Weather by CustomWeather, © 2020

See weather overview

Advertising